Time,TemperatureF,DewpointF,PressureIn,WindDirection,WindDirectionDegrees,WindSpeedMPH,WindSpeedGustMPH,Humidity,HourlyPrecipIn,Conditions,Clouds,dailyrainin,SoftwareType,DateUTC
2013-03-16 00:00:00,36.0,36.0,-100.00,North,-999,-999.0,-999.0,103,-99.99,,,0.00,,2013-03-16 07:00:00,
2013-03-16 00:52:00,36.0,36.0,-100.00,North,-999,-999.0,-999.0,103,-99.99,,,0.00,,2013-03-16 07:52:00,
2013-03-16 01:00:00,36.0,36.0,-100.00,SSW,204,1.0,1.0,103,-99.99,,,0.01,,2013-03-16 08:00:00,
2013-03-16 02:00:00,36.0,36.0,-100.00,South,183,1.0,2.0,103,-99.99,,,0.00,,2013-03-16 09:00:00,
2013-03-16 03:00:00,35.0,35.0,-100.00,ESE,117,1.0,2.0,103,-99.99,,,0.01,,2013-03-16 10:00:00,
2013-03-16 04:00:00,34.0,34.0,-100.00,SSE,158,1.0,2.0,103,-99.99,,,0.01,,2013-03-16 11:00:00,
2013-03-16 05:00:00,34.0,34.0,-100.00,SSW,205,1.0,3.0,103,-99.99,,,0.01,,2013-03-16 12:00:00,
2013-03-16 06:00:00,34.0,34.0,-100.00,South,186,1.0,2.0,103,-99.99,,,0.01,,2013-03-16 13:00:00,
2013-03-16 07:00:00,34.0,34.0,-100.00,WNW,289,1.0,2.0,103,-99.99,,,0.01,,2013-03-16 14:00:00,
2013-03-16 08:00:00,33.0,33.0,-100.00,WSW,242,1.0,2.0,103,-99.99,,,-99.99,,2013-03-16 15:00:00,
2013-03-16 09:00:00,33.0,33.0,-100.00,WNW,302,1.0,3.0,103,-99.99,,,0.02,,2013-03-16 16:00:00,
2013-03-16 10:00:00,33.0,33.0,-100.00,SSW,210,1.0,3.0,103,-99.99,,,0.01,,2013-03-16 17:00:00,
2013-03-16 11:00:00,34.0,34.0,-100.00,West,278,1.0,3.0,103,-99.99,,,0.02,,2013-03-16 18:00:00,
2013-03-16 12:00:00,34.0,34.0,-100.00,SW,214,1.0,3.0,103,-99.99,,,-99.99,,2013-03-16 19:00:00,
2013-03-16 13:00:00,34.0,34.0,-100.00,NNW,333,2.0,4.0,103,-99.99,,,0.01,,2013-03-16 20:00:00,
2013-03-16 14:00:00,33.0,33.0,-100.00,NW,321,2.0,4.0,103,-99.99,,,0.02,,2013-03-16 21:00:00,
2013-03-16 15:00:00,33.0,33.0,-100.00,SSE,163,1.0,3.0,104,-99.99,,,0.02,,2013-03-16 22:00:00,
2013-03-16 16:00:00,33.0,33.0,-100.00,SSW,194,2.0,4.0,104,-99.99,,,0.02,,2013-03-16 23:00:00,
2013-03-16 17:00:00,31.0,31.0,-100.00,North,-999,-999.0,-999.0,104,-99.99,,,0.03,,2013-03-17 00:00:00,
2013-03-16 18:00:00,29.0,29.0,-100.00,North,-999,-999.0,-999.0,104,-99.99,,,0.04,,2013-03-17 01:00:00,
2013-03-16 19:00:00,28.0,28.0,-100.00,SSW,195,0.0,0.0,103,-99.99,,,0.04,,2013-03-17 02:00:00,
2013-03-16 19:52:00,28.0,28.0,-100.00,SSW,195,0.0,0.0,103,-99.99,,,0.04,,2013-03-17 02:52:00,
2013-03-16 20:00:00,28.0,28.0,-100.00,ESE,115,0.0,0.0,101,-99.99,,,0.03,,2013-03-17 03:00:00,
2013-03-16 21:00:00,28.0,28.0,-100.00,SSE,160,0.0,0.0,101,-99.99,,,0.03,,2013-03-17 04:00:00,
2013-03-16 22:00:00,27.0,27.0,-100.00,South,174,0.0,0.0,101,-99.99,,,0.03,,2013-03-17 05:00:00,
2013-03-16 23:00:00,27.0,27.0,-100.00,ESE,118,0.0,0.0,101,-99.99,,,0.03,,2013-03-17 06:00:00,